Location: Rathdrum
(47.8130°N, 116.8960°W)
Time: 21:44:28
(UTC-07:00)

Amateur Radio Satellites - All Passes

Search period start: 26 August 2016 21:14
Search period end: 27 August 2016 21:14
Location: Rathdrum, 47.8130°N, 116.8960°W

Satellite Date Start Highest point End Downlink Frequencies (MHz)
Time Altitude Azimuth
AIST 2 26 Aug 21:22:31 21:26:43 77° 235° (SW) 21:30:53 435.215
AIST 1 26 Aug 21:24:47 21:28:42 32° 270° (W) 21:32:37
ZACube-1 26 Aug 21:27:15 21:31:38 55° 260° (W) 21:35:57 437.345
SEEDS 26 Aug 21:31:25 21:33:22 13° 272° (W) 21:35:21 437.485
PCSat 26 Aug 21:31:28 21:36:50 61° 242° (WSW) 21:42:10 145.827
STRAND 1 26 Aug 21:55:32 21:58:58 18° 302° (WNW) 22:02:22 437.568
HO-68 26 Aug 21:58:02 22:01:22 14° 276° (W) 22:04:43 435.675
Cosmos 2491 26 Aug 22:05:25 22:07:05 11° 318° (NW) 22:08:45 435.465 / 435.565
O/OREOS (USA 219) 26 Aug 22:06:51 22:09:20 14° 43° (NE) 22:11:47 437.305
VELOX 1 26 Aug 22:13:06 22:15:18 14° 57° (ENE) 22:17:31 145.980
DELFI C3 26 Aug 22:15:24 22:19:02 36° 263° (W) 22:22:42 145.870
ANTELSAT 26 Aug 22:16:04 22:19:16 20° 92° (E) 22:22:25 437.575/2403.000
CUBEBUG 1 26 Aug 22:17:01 22:19:51 17° 60° (ENE) 22:22:42 437.445
HUMSAT D 26 Aug 22:22:27 22:26:35 63° 259° (WSW) 22:30:42 437.325/437.525
Cosmos 2499 26 Aug 22:22:41 22:28:42 28° 65° (ENE) 22:34:40 435.465 / 435.565
GONETS M04 26 Aug 22:32:01 22:40:31 47° 70° (ENE) 22:48:56
DX 1 26 Aug 22:33:24 22:35:53 15° 58° (ENE) 22:38:21 434.975-435.025
AUBIESAT-1 26 Aug 22:38:32 22:43:11 85° 71° (ENE) 22:47:50 437.475
Oscar 11 26 Aug 22:39:53 22:41:20 11° 273° (W) 22:42:46 145.826/435.025
SPROUT 26 Aug 22:40:16 22:42:08 13° 58° (ENE) 22:43:59 437.525
M-CUBED/EXP-1 PRIME 26 Aug 22:43:19 22:48:01 74° 252° (WSW) 22:52:45 437.505
PRISM 26 Aug 22:43:50 22:47:24 27° 294° (WNW) 22:50:56 437.425
FUNcube-1 26 Aug 22:46:13 22:47:30 11° 273° (W) 22:48:46 145.935
TIGRISAT 26 Aug 22:46:44 22:50:46 37° 97° (E) 22:54:44 435.000
ESTCUBE 1 26 Aug 22:47:13 22:51:28 45° 69° (ENE) 22:55:46 437.505/2401.250
CUSAT 1 26 Aug 22:50:24 22:51:41 12° 82° (E) 22:53:05 437.405
AISAT 26 Aug 22:59:40 23:03:45 36° 67° (ENE) 23:07:51 437.250
QB50P2 26 Aug 23:06:19 23:07:28 11° 87° (E) 23:08:36 145.880/145.840
POLYITAN 1 26 Aug 23:08:48 23:10:00 11° 87° (E) 23:11:10 437.675
JAS-2 26 Aug 23:10:34 23:12:57 12° 84° (E) 23:15:23 435.910
UKube-1 26 Aug 23:14:15 23:17:54 27° 65° (ENE) 23:21:35 .
UNISAT 6 26 Aug 23:14:53 23:19:14 79° 103° (ESE) 23:23:30 437.425
NANOSAT C BR1 26 Aug 23:17:39 23:19:38 13° 89° (E) 23:21:35 145.865
RS-15 26 Aug 23:19:34 23:20:08 10° 88° (E) 23:20:43 29.354- 29.394
50 SAT 26 Aug 23:21:16 23:24:44 50° 72° (ENE) 23:28:14 437.505
O/OREOS (USA 219) 26 Aug 23:44:55 23:49:32 79° 63° (ENE) 23:54:09 437.305
VELOX 1 26 Aug 23:46:41 23:51:08 85° 256° (WSW) 23:55:38 145.980
SO-50 26 Aug 23:50:55 23:55:23 38° 119° (ESE) 23:59:51 436.795
CUBEBUG 1 26 Aug 23:51:18 23:55:40 64° 259° (WSW) 00:00:05 437.445
ANTELSAT 26 Aug 23:52:06 23:56:14 44° 290° (WNW) 00:00:17 437.575/2403.000
QB50P1 26 Aug 23:59:40 00:03:35 36° 97° (E) 00:07:29 145.935-145.965
BUGSAT 1 27 Aug 00:02:54 00:05:29 16° 90° (E) 00:08:02 437.445
DX 1 27 Aug 00:07:09 00:11:31 74° 257° (WSW) 00:15:56 434.975-435.025
POPSAT HIP 1 27 Aug 00:09:30 00:13:35 45° 99° (E) 00:17:36 437.405
SPROUT 27 Aug 00:13:06 00:17:25 87° 251° (WSW) 00:21:47 437.525
Cosmos 2499 27 Aug 00:15:23 00:22:21 61° 267° (W) 00:29:17 435.465 / 435.565
AUBIESAT-1 27 Aug 00:15:56 00:18:10 13° 267° (W) 00:20:25 437.475
M-CUBED/EXP-1 PRIME 27 Aug 00:22:56 00:23:14 10° 269° (W) 00:23:33 437.505
TIGRISAT 27 Aug 00:23:48 00:27:18 24° 296° (WNW) 00:30:44 435.000
ESTCUBE 1 27 Aug 00:25:01 00:28:29 22° 267° (W) 00:32:00 437.505/2401.250
GONETS M04 27 Aug 00:29:04 00:37:22 47° 273° (W) 00:45:39
CUSAT 1 27 Aug 00:30:16 00:33:05 34° 291° (WNW) 00:36:33 437.405
TISAT 1 27 Aug 00:35:43 00:39:42 40° 69° (ENE) 00:43:41 437.305
AISAT 27 Aug 00:36:30 00:40:17 27° 265° (W) 00:44:07 437.250
DUCHIFAT 1 27 Aug 00:38:13 00:42:27 82° 102° (ESE) 00:46:38 145.980
QB50P2 27 Aug 00:39:36 00:43:51 82° 285° (WNW) 00:48:04 145.880/145.840
POLYITAN 1 27 Aug 00:42:08 00:46:23 81° 284° (WNW) 00:50:34 437.675
ITUPSAT 1 27 Aug 00:47:39 00:50:16 15° 57° (ENE) 00:52:54 437.325
UKube-1 27 Aug 00:49:53 00:53:50 34° 263° (W) 00:57:50 .
NANOSAT C BR1 27 Aug 00:51:38 00:55:50 69° 287° (WNW) 01:00:00 145.865
JAS-2 27 Aug 00:52:27 00:59:02 62° 101° (ESE) 01:06:24 435.910
UNISAT 6 27 Aug 00:53:15 00:55:21 13° 302° (WNW) 00:57:27 437.425
50 SAT 27 Aug 00:56:54 00:58:38 13° 270° (W) 01:00:22 437.505
RS-15 27 Aug 01:18:17 01:29:10 50° 112° (ESE) 01:40:36 29.354- 29.394
SWISSCUBE 27 Aug 01:19:22 01:23:28 30° 64° (ENE) 01:27:34 437.505
DANDE 27 Aug 01:19:40 01:21:56 25° 290° (WNW) 01:24:24 436.750
O/OREOS (USA 219) 27 Aug 01:26:07 01:28:17 13° 262° (W) 01:30:27 437.305
SO-50 27 Aug 01:31:20 01:35:54 40° 318° (NW) 01:40:24 436.795
QB50P1 27 Aug 01:35:46 01:39:13 25° 295° (WNW) 01:42:39 145.935-145.965
BEESAT 27 Aug 01:36:16 01:40:37 37° 67° (ENE) 01:45:01 436.000
BUGSAT 1 27 Aug 01:37:08 01:41:13 54° 288° (WNW) 01:45:13 437.445
Gurwin Techsat 1B 27 Aug 01:41:57 01:45:21 17° 89° (E) 01:48:44 435.225
POPSAT HIP 1 27 Aug 01:45:55 01:49:05 21° 297° (WNW) 01:52:13 437.405
MOZHAYETS 4 27 Aug 02:00:12 02:01:36 11° 55° (NE) 02:03:00
TISAT 1 27 Aug 02:12:08 02:15:29 22° 267° (W) 02:18:52 437.305
Cosmos 2499 27 Aug 02:13:26 02:13:49 10° 289° (WNW) 02:14:12 435.465 / 435.565
DUCHIFAT 1 27 Aug 02:15:40 02:17:32 13° 302° (WNW) 02:19:23 145.980
Oscar 19 27 Aug 02:16:19 02:21:32 66° 102° (ESE) 02:26:41 437.125/150
QB50P2 27 Aug 02:17:56 02:18:56 11° 304° (WNW) 02:19:55 145.880/145.840
POLYITAN 1 27 Aug 02:20:34 02:21:27 11° 304° (NW) 02:22:19 437.675
ITUPSAT 1 27 Aug 02:22:41 02:27:28 86° 255° (WSW) 02:32:15 437.325
JAS-2 27 Aug 02:38:08 02:43:47 32° 298° (WNW) 02:49:59 435.910
STARS 27 Aug 02:38:28 02:39:47 11° 55° (NE) 02:41:06 437.465
SWISSCUBE 27 Aug 02:56:45 03:01:09 37° 263° (W) 03:05:35 437.505
AO-7 27 Aug 02:57:46 03:02:52 17° 86° (E) 03:07:56 29.400- 29.500
BEESAT 27 Aug 03:14:21 03:18:29 29° 265° (W) 03:22:38 436.000
SO-50 27 Aug 03:15:09 03:17:39 14° 340° (NNW) 03:20:08 436.795
Gurwin Techsat 1B 27 Aug 03:20:34 03:25:54 75° 288° (WNW) 03:31:12 435.225
ITAMSAT 1 27 Aug 03:28:52 03:33:50 44° 99° (E) 03:38:47 435.822/435.867
RS-15 27 Aug 03:29:48 03:41:27 64° 318° (NW) 03:53:41 29.354- 29.394
KKS-1 27 Aug 03:33:04 03:37:30 63° 72° (ENE) 03:41:58 437.445
PHONESAT 2.4 27 Aug 03:33:14 03:35:18 17° 169° (S) 03:37:21 2401.200-2431.200
MOZHAYETS 4 27 Aug 03:33:26 03:37:58 77° 75° (ENE) 03:42:33
Oscar 19 27 Aug 03:56:32 04:00:23 21° 301° (WNW) 04:04:13 437.125/150
ITUPSAT 1 27 Aug 04:04:41 04:06:02 11° 274° (W) 04:07:23 437.325
Cosmos 2491 27 Aug 04:07:39 04:15:17 31° 63° (ENE) 04:22:51 435.465 / 435.565
STARS 27 Aug 04:10:56 04:15:22 78° 73° (ENE) 04:19:49 437.465
HORYU 2 27 Aug 04:44:37 04:46:48 13° 89° (E) 04:48:59 437.375
AO-7 27 Aug 04:48:41 04:57:03 76° 107° (ESE) 05:05:21 29.400- 29.500
CUBESAT XI-V 27 Aug 04:51:31 04:56:04 65° 73° (ENE) 05:00:41 437.345
SO-50 27 Aug 04:59:20 05:00:13 10° 6° (N) 05:01:07 436.795
Gurwin Techsat 1B 27 Aug 05:02:23 05:04:59 14° 307° (NW) 05:07:34 435.225
ITAMSAT 1 27 Aug 05:08:42 05:13:08 29° 297° (WNW) 05:17:34 435.822/435.867
PHONESAT 2.4 27 Aug 05:08:50 05:11:04 19° 186° (S) 05:13:19 2401.200-2431.200
KKS-1 27 Aug 05:11:46 05:14:30 16° 270° (W) 05:17:15 437.445
MOZHAYETS 4 27 Aug 05:13:32 05:15:43 13° 272° (W) 05:17:54
YUBILEINY 27 Aug 05:27:15 05:34:36 31° 81° (E) 05:41:57 435.215
AO-85 27 Aug 05:29:01 05:33:53 38° 118° (ESE) 05:38:29 145.980
RS-15 27 Aug 05:45:59 05:56:52 37° 350° (N) 06:08:03 29.354- 29.394
STARS 27 Aug 05:50:19 05:52:17 13° 272° (W) 05:54:14 437.465
Cubesat XI-IV 27 Aug 05:53:23 05:56:21 15° 88° (E) 05:59:18 437.490
STRAND 1 27 Aug 05:56:50 06:00:51 24° 61° (ENE) 06:04:52 437.568
Cosmos 2491 27 Aug 06:04:10 06:12:57 72° 266° (W) 06:21:43 435.465 / 435.565
CUTE-I 27 Aug 06:04:52 06:08:36 19° 90° (E) 06:12:19 437.470
GOMX 1 27 Aug 06:05:05 06:09:13 21° 89° (E) 06:13:12 467.674
Cosmos 2504 27 Aug 06:06:52 06:12:08 19° 77° (ENE) 06:17:11 435.465 / 435.565
NOAA 15 27 Aug 06:07:48 06:12:11 25° 93° (E) 06:16:31 137.62
DOVE 4 27 Aug 06:16:38 06:18:25 12° 83° (E) 06:20:10 437.250
HORYU 2 27 Aug 06:19:27 06:23:52 72° 288° (WNW) 06:28:16 437.375
BRITE-PL 27 Aug 06:24:52 06:30:33 62° 100° (E) 06:36:08 437.365/2234.400
CUBESAT XI-V 27 Aug 06:31:06 06:33:56 16° 271° (W) 06:36:46 437.345
SO-50 27 Aug 06:39:00 06:42:32 20° 30° (NNE) 06:45:59 436.795
NOAA 18 27 Aug 06:39:06 06:44:00 32° 96° (E) 06:48:51 137.9125
AO-7 27 Aug 06:42:09 06:49:10 32° 309° (NW) 06:56:09 29.400- 29.500
PHONESAT 2.4 27 Aug 06:46:37 06:46:45 10° 202° (SSW) 06:46:52 2401.200-2431.200
LilacSat-2 27 Aug 06:59:25 07:03:09 58° 100° (E) 07:06:52 437.200
AO-85 27 Aug 07:09:25 07:14:21 42° 316° (NW) 07:19:01 145.980
YUBILEINY 27 Aug 07:21:55 07:30:43 69° 283° (WNW) 07:39:34 435.215
HO-68 27 Aug 07:30:09 07:35:10 20° 88° (E) 07:40:09 435.675
Cubesat XI-IV 27 Aug 07:31:45 07:37:07 84° 287° (WNW) 07:42:26 437.490
STRAND 1 27 Aug 07:34:41 07:39:41 55° 259° (W) 07:44:43 437.568
GOMX 1 27 Aug 07:42:18 07:47:44 62° 288° (WNW) 07:52:55 467.674
CUTE-I 27 Aug 07:43:52 07:49:10 67° 288° (WNW) 07:54:25 437.470
NOAA 15 27 Aug 07:47:05 07:52:14 52° 291° (WNW) 07:57:22 137.62
DOVE 4 27 Aug 07:51:48 07:56:59 84° 102° (ESE) 08:01:52 437.250
CANX-2 27 Aug 07:54:22 07:57:43 22° 93° (E) 08:01:04 2200.000
Cosmos 2504 27 Aug 07:55:59 08:04:25 84° 97° (E) 08:12:17 435.465 / 435.565
HORYU 2 27 Aug 07:58:56 07:59:37 10° 306° (NW) 08:00:19 437.375
CUTE 1.7 + AOD 2 27 Aug 08:00:34 08:03:57 23° 93° (E) 08:07:19 437.475
PRISM 27 Aug 08:00:54 08:04:40 37° 68° (ENE) 08:08:29 437.425
RS-15 27 Aug 08:01:52 08:13:24 43° 24° (NNE) 08:24:57 29.354- 29.394
Cosmos 2491 27 Aug 08:03:17 08:08:08 16° 288° (WNW) 08:12:58 435.465 / 435.565
BRITE-PL 27 Aug 08:04:01 08:08:35 25° 299° (WNW) 08:13:07 437.365/2234.400
AAUSAT CUBESAT 2 27 Aug 08:08:32 08:09:37 11° 87° (E) 08:10:42 437.432
COMPASS 1 27 Aug 08:14:43 08:17:22 16° 90° (E) 08:20:01 437.405
SO-50 27 Aug 08:19:01 08:23:42 86° 51° (NE) 08:28:13 436.795
NOAA 18 27 Aug 08:19:37 08:24:46 42° 295° (WNW) 08:29:52 137.9125
AIST 1 27 Aug 08:21:54 08:24:05 14° 83° (E) 08:26:18
LilacSat-2 27 Aug 08:35:02 08:37:02 14° 298° (WNW) 08:39:01 437.200
CINEMA 3 27 Aug 08:36:32 08:41:09 68° 102° (ESE) 08:45:30 145.822/145.860
AO-7 27 Aug 08:38:20 08:39:19 10° 334° (NNW) 08:40:18 29.400- 29.500
UNISAT 6 27 Aug 08:42:28 08:44:57 15° 59° (ENE) 08:47:25 437.425
Oscar 11 27 Aug 08:46:07 08:47:39 12° 87° (E) 08:49:12 145.826/435.025
FUNcube-1 27 Aug 08:52:46 08:54:25 12° 88° (E) 08:56:03 145.935
AO-85 27 Aug 08:53:20 08:56:01 14° 338° (NNW) 08:58:36 145.980
UWE-3 27 Aug 08:57:02 09:00:21 22° 92° (E) 09:03:36 435.000/436.395/437.385
CUBEBUG 2 27 Aug 08:58:01 09:01:53 33° 95° (E) 09:05:40 437.445
SEEDS 27 Aug 09:08:57 09:13:10 82° 101° (E) 09:17:24 437.485
ZACube-1 27 Aug 09:12:45 09:15:57 21° 92° (E) 09:19:06 437.345
Cubesat XI-IV 27 Aug 09:13:24 09:16:25 15° 306° (NW) 09:19:25 437.490
CUSAT 1 27 Aug 09:14:36 09:19:51 29° 68° (ENE) 09:26:03 437.405
HO-68 27 Aug 09:16:35 09:23:49 88° 289° (WNW) 09:30:59 435.675
ANTELSAT 27 Aug 09:17:42 09:21:38 29° 66° (ENE) 09:25:31 437.575/2403.000
GOMX 1 27 Aug 09:22:44 09:24:42 12° 308° (NW) 09:26:39 467.674
YUBILEINY 27 Aug 09:23:54 09:29:30 18° 308° (NW) 09:35:07 435.215
CUTE-I 27 Aug 09:26:07 09:28:15 12° 308° (NW) 09:30:24 437.470
ISS 27 Aug 09:27:08 09:30:11 35° 145° (SE) 09:33:14 145.825
CANX-2 27 Aug 09:29:46 09:33:43 39° 291° (WNW) 09:37:40 2200.000
DOVE 4 27 Aug 09:30:49 09:33:57 16° 303° (WNW) 09:36:59 437.250
BEESAT 3 27 Aug 09:34:32 09:37:45 24° 116° (ESE) 09:40:59 437.485
CUTE 1.7 + AOD 2 27 Aug 09:35:59 09:39:55 38° 291° (WNW) 09:43:52 437.475
PRISM 27 Aug 09:36:49 09:40:05 23° 266° (W) 09:43:23 437.425
AAUSAT CUBESAT 2 27 Aug 09:41:28 09:45:39 80° 285° (WNW) 09:49:49 437.432
TIGRISAT 27 Aug 09:48:09 09:52:36 52° 71° (ENE) 09:56:59 435.000
COMPASS 1 27 Aug 09:49:10 09:53:16 53° 288° (WNW) 09:57:20 437.405
DELFI C3 27 Aug 09:49:35 09:52:44 22° 93° (E) 09:55:52 145.870
Cosmos 2504 27 Aug 09:52:17 09:58:44 24° 298° (WNW) 10:04:53 435.465 / 435.565
AIST 1 27 Aug 09:56:47 10:01:07 65° 282° (WNW) 10:05:30
DUCHIFAT 1 27 Aug 10:00:28 10:02:09 12° 58° (ENE) 10:03:49 145.980
SO-50 27 Aug 10:01:09 10:03:28 14° 251° (WSW) 10:05:47 436.795
QB50P2 27 Aug 10:01:42 10:04:05 15° 59° (ENE) 10:06:29 145.880/145.840
HUMSAT D 27 Aug 10:03:24 10:05:55 16° 90° (E) 10:08:26 437.325/437.525
POLYITAN 1 27 Aug 10:04:11 10:06:36 15° 60° (ENE) 10:09:02 437.675
DANDE 27 Aug 10:07:16 10:11:33 27° 71° (ENE) 10:16:52 436.750
NANOSAT C BR1 27 Aug 10:12:51 10:15:35 17° 61° (ENE) 10:18:17 145.865
CINEMA 3 27 Aug 10:14:52 10:17:43 16° 301° (WNW) 10:20:29 145.822/145.860
RS-15 27 Aug 10:15:15 10:27:43 87° 53° (NE) 10:40:01 29.354- 29.394
UNISAT 6 27 Aug 10:16:30 10:21:06 80° 256° (WSW) 10:25:39 437.425
Oscar 11 27 Aug 10:20:02 10:24:21 79° 286° (WNW) 10:28:40 145.826/435.025
FUNcube-1 27 Aug 10:27:02 10:31:12 71° 285° (WNW) 10:35:18 145.935
UWE-3 27 Aug 10:33:03 10:36:58 38° 291° (WNW) 10:40:49 435.000/436.395/437.385
CUBEBUG 2 27 Aug 10:34:50 10:38:26 27° 295° (WNW) 10:41:57 437.445
SEEDS 27 Aug 10:46:28 10:48:16 13° 301° (WNW) 10:50:05 437.485
ZACube-1 27 Aug 10:48:30 10:52:25 40° 290° (WNW) 10:56:18 437.345
BEESAT 2 27 Aug 10:52:13 10:56:10 77° 125° (SE) 11:00:10 435.950
ANTELSAT 27 Aug 10:54:02 10:58:16 35° 263° (W) 11:02:26 437.575/2403.000
QB50P1 27 Aug 10:55:03 10:59:05 42° 70° (ENE) 11:03:09 145.935-145.965
BUGSAT 1 27 Aug 10:55:42 10:58:45 19° 62° (ENE) 11:01:47 437.445
CUSAT 1 27 Aug 10:56:03 11:02:07 63° 263° (W) 11:09:32 437.405
ISS 27 Aug 11:03:19 11:06:34 57° 344° (NNW) 11:09:50 145.825
POPSAT HIP 1 27 Aug 11:04:52 11:09:02 52° 71° (ENE) 11:13:13 437.405
Cosmos 2499 27 Aug 11:04:53 11:10:31 22° 80° (E) 11:15:54 435.465 / 435.565
HO-68 27 Aug 11:05:23 11:10:39 23° 309° (NW) 11:15:55 435.675
JAS-2 27 Aug 11:09:47 11:14:29 34° 63° (ENE) 11:19:31 435.910
BEESAT 3 27 Aug 11:11:30 11:15:14 41° 315° (NW) 11:19:01 437.485
AAUSAT CUBESAT 2 27 Aug 11:19:51 11:20:24 10° 303° (WNW) 11:20:58 437.432
DELFI C3 27 Aug 11:24:00 11:27:40 36° 291° (WNW) 11:31:21 145.870
TIGRISAT 27 Aug 11:26:16 11:29:35 19° 268° (W) 11:32:52 435.000
DUCHIFAT 1 27 Aug 11:32:55 11:37:11 89° 266° (W) 11:41:28 145.980
VELOX 1 27 Aug 11:34:42 11:37:13 15° 89° (E) 11:39:42 145.980
QB50P2 27 Aug 11:35:06 11:39:22 71° 257° (WSW) 11:43:40 145.880/145.840
CUBEBUG 1 27 Aug 11:37:12 11:40:23 19° 91° (E) 11:43:32 437.445
GONETS M04 27 Aug 11:37:28 11:45:38 46° 87° (E) 11:53:53
POLYITAN 1 27 Aug 11:37:37 11:41:54 70° 257° (WSW) 11:46:11 437.675
HUMSAT D 27 Aug 11:37:53 11:41:52 52° 288° (WNW) 11:45:51 437.325/437.525
NANOSAT C BR1 27 Aug 11:46:39 11:50:52 60° 259° (W) 11:55:06 145.865
AUBIESAT-1 27 Aug 11:49:14 11:53:01 34° 101° (ESE) 11:56:32 437.475
DANDE 27 Aug 11:49:25 11:54:23 53° 263° (W) 12:00:55 436.750
DX 1 27 Aug 11:53:08 11:55:42 15° 90° (E) 11:58:16 434.975-435.025
M-CUBED/EXP-1 PRIME 27 Aug 11:54:27 11:58:34 47° 104° (ESE) 12:02:19 437.505
SPROUT 27 Aug 11:57:20 11:59:18 13° 88° (E) 12:01:13 437.525
Oscar 11 27 Aug 11:58:45 11:59:45 11° 304° (WNW) 12:00:43 145.826/435.025
Oscar 19 27 Aug 11:59:02 12:02:53 22° 59° (ENE) 12:06:46 437.125/150
ESTCUBE 1 27 Aug 12:12:34 12:17:05 61° 101° (ESE) 12:21:35 437.505/2401.250
AO-7 27 Aug 12:14:10 12:16:52 12° 30° (NNE) 12:19:34 29.400- 29.500
PCSat 27 Aug 12:16:02 12:21:22 62° 119° (ESE) 12:26:44 145.827
AO-85 27 Aug 12:17:51 12:20:56 18° 28° (NNE) 12:23:51 145.980
50 SAT 27 Aug 12:19:31 12:22:56 37° 98° (E) 12:26:21 437.505
AISAT 27 Aug 12:22:21 12:26:39 44° 99° (E) 12:30:54 437.250
RS-15 27 Aug 12:28:44 12:38:51 32° 257° (WSW) 12:48:52 29.354- 29.394
BUGSAT 1 27 Aug 12:29:38 12:33:47 50° 260° (W) 12:37:57 437.445
BEESAT 2 27 Aug 12:31:34 12:34:28 19° 326° (NW) 12:37:23 435.950
QB50P1 27 Aug 12:31:46 12:35:03 21° 267° (W) 12:38:20 145.935-145.965
UKube-1 27 Aug 12:33:18 12:37:07 29° 96° (E) 12:40:54 .
ISS 27 Aug 12:40:14 12:43:24 41° 4° (N) 12:46:32 145.825
CUSAT 1 27 Aug 12:40:55 12:43:22 12° 278° (W) 12:45:59 437.405
POPSAT HIP 1 27 Aug 12:42:16 12:45:08 17° 269° (W) 12:48:00 437.405
BEESAT 3 27 Aug 12:52:45 12:53:57 11° 337° (NNW) 12:55:09 437.485
Cosmos 2499 27 Aug 12:54:39 13:02:47 84° 279° (W) 13:10:21 435.465 / 435.565
JAS-2 27 Aug 12:54:47 12:59:35 37° 265° (W) 13:04:44 435.910
AIST 2 27 Aug 13:00:53 13:04:59 74° 125° (SE) 13:09:07 435.215
Gurwin Techsat 1B 27 Aug 13:05:51 13:10:43 38° 65° (ENE) 13:15:36 435.225
VELOX 1 27 Aug 13:09:41 13:14:09 68° 287° (WNW) 13:18:34 145.980
CUBEBUG 1 27 Aug 13:12:39 13:16:58 51° 289° (WNW) 13:21:15 437.445
ITAMSAT 1 27 Aug 13:13:26 13:16:36 17° 56° (NE) 13:19:45 435.822/435.867
AUBIESAT-1 27 Aug 13:23:52 13:27:21 26° 302° (WNW) 13:30:37 437.475
DX 1 27 Aug 13:27:57 13:32:20 64° 288° (WNW) 13:36:39 434.975-435.025
M-CUBED/EXP-1 PRIME 27 Aug 13:29:33 13:32:44 21° 305° (NW) 13:35:45 437.505
SPROUT 27 Aug 13:31:27 13:35:45 72° 286° (WNW) 13:39:59 437.525
GONETS M04 27 Aug 13:34:08 13:42:28 47° 290° (WNW) 13:50:57
Oscar 19 27 Aug 13:36:39 13:41:46 63° 258° (WSW) 13:46:57 437.125/150
ESTCUBE 1 27 Aug 13:50:22 13:53:28 18° 300° (WNW) 13:56:33 437.505/2401.250
TISAT 1 27 Aug 13:51:30 13:55:33 43° 99° (E) 13:59:33 437.305
50 SAT 27 Aug 13:53:43 13:56:17 18° 296° (WNW) 13:58:51 437.505
AO-85 27 Aug 13:57:46 14:02:10 77° 50° (NE) 14:06:14 145.980
AISAT 27 Aug 13:59:20 14:02:53 23° 297° (WNW) 14:06:25 437.250
AO-7 27 Aug 13:59:52 14:07:17 37° 54° (NE) 14:14:41 29.400- 29.500
PCSat 27 Aug 14:00:27 14:05:09 29° 319° (NW) 14:09:54 145.827
O/OREOS (USA 219) 27 Aug 14:00:35 14:04:52 46° 109° (ESE) 14:09:13 437.305
UKube-1 27 Aug 14:09:17 14:13:10 32° 294° (WNW) 14:17:00 .
ISS 27 Aug 14:16:47 14:20:06 89° 23° (NNE) 14:23:23 145.825
ITUPSAT 1 27 Aug 14:20:32 14:23:56 19° 91° (E) 14:27:18 437.325
AIST 2 27 Aug 14:40:46 14:43:55 21° 326° (NW) 14:47:06 435.215
Gurwin Techsat 1B 27 Aug 14:45:52 14:50:42 35° 264° (W) 14:55:33 435.225
ITAMSAT 1 27 Aug 14:50:12 14:55:23 87° 254° (WSW) 15:00:37 435.822/435.867
Cosmos 2499 27 Aug 14:51:35 14:57:03 20° 301° (WNW) 15:02:19 435.465 / 435.565
SWISSCUBE 27 Aug 14:52:58 14:57:30 41° 99° (E) 15:02:00 437.505
BEESAT 27 Aug 15:10:02 15:14:44 54° 101° (E) 15:19:23 436.000
MOZHAYETS 4 27 Aug 15:26:22 15:28:48 14° 88° (E) 15:31:15
TISAT 1 27 Aug 15:27:44 15:30:57 21° 297° (WNW) 15:34:08 437.305
YUBILEINY 27 Aug 15:32:08 15:38:05 19° 54° (NE) 15:43:57 435.215
GONETS M04 27 Aug 15:39:17 15:42:11 12° 317° (NW) 15:45:06
AO-85 27 Aug 15:39:53 15:41:54 13° 251° (WSW) 15:43:51 145.980
O/OREOS (USA 219) 27 Aug 15:40:47 15:44:30 25° 309° (NW) 15:48:17 437.305
HORYU 2 27 Aug 15:45:25 15:48:44 21° 62° (ENE) 15:52:02 437.375
PCSat 27 Aug 15:48:36 15:50:27 12° 344° (NNW) 15:52:17 145.827
AO-7 27 Aug 15:51:21 15:59:39 65° 255° (WSW) 16:07:58 29.400- 29.500
ISS 27 Aug 15:53:50 15:56:13 19° 222° (SW) 15:58:35 145.825
NOAA 15 27 Aug 15:56:44 15:57:27 10° 49° (NE) 15:58:09 137.62
ITUPSAT 1 27 Aug 15:57:26 16:02:08 58° 289° (WNW) 16:06:49 437.325
STARS 27 Aug 15:59:27 16:00:33 11° 87° (E) 16:01:38 437.465
BRITE-PL 27 Aug 16:03:07 16:06:05 16° 55° (NE) 16:09:10 437.365/2234.400
BEESAT 3 27 Aug 16:11:27 16:13:05 12° 25° (NNE) 16:14:42 437.485
NOAA 18 27 Aug 16:31:03 16:34:19 16° 53° (NE) 16:37:35 137.9125
SWISSCUBE 27 Aug 16:31:08 16:35:07 27° 297° (WNW) 16:39:06 437.505
ITAMSAT 1 27 Aug 16:33:22 16:35:37 13° 273° (W) 16:37:53 435.822/435.867
CUBESAT XI-V 27 Aug 16:46:12 16:48:24 13° 87° (E) 16:50:37 437.345
BEESAT 27 Aug 16:48:34 16:52:10 22° 299° (WNW) 16:55:45 436.000
KKS-1 27 Aug 16:56:56 17:01:26 79° 104° (ESE) 17:05:53 437.445
MOZHAYETS 4 27 Aug 17:01:55 17:06:30 72° 286° (WNW) 17:11:04
Cosmos 2491 27 Aug 17:14:30 17:21:37 29° 80° (E) 17:28:47 435.465 / 435.565
GOMX 1 27 Aug 17:15:51 17:20:22 31° 64° (ENE) 17:25:06 467.674
Cubesat XI-IV 27 Aug 17:18:00 17:22:48 35° 64° (ENE) 17:27:37 437.490
HORYU 2 27 Aug 17:20:38 17:24:58 51° 260° (W) 17:29:20 437.375
DOVE 4 27 Aug 17:23:59 17:27:42 20° 59° (ENE) 17:31:28 437.250
YUBILEINY 27 Aug 17:27:51 17:36:41 74° 79° (E) 17:45:24 435.215
CUTE-I 27 Aug 17:29:37 17:34:38 43° 67° (ENE) 17:39:40 437.470
BEESAT 2 27 Aug 17:29:48 17:33:03 23° 37° (NE) 17:36:17 435.950
NOAA 15 27 Aug 17:31:00 17:36:06 55° 70° (ENE) 17:41:16 137.62
STARS 27 Aug 17:33:07 17:37:33 88° 290° (WNW) 17:41:57 437.465
PCSat 27 Aug 17:35:22 17:36:32 11° 12° (NNE) 17:37:40 145.827
BRITE-PL 27 Aug 17:38:48 17:43:43 89° 65° (ENE) 17:49:05 437.365/2234.400
LilacSat-2 27 Aug 17:44:23 17:48:04 46° 72° (ENE) 17:51:45 437.200
Cosmos 2504 27 Aug 17:44:56 17:51:34 35° 68° (ENE) 17:58:01 435.465 / 435.565
BEESAT 3 27 Aug 17:47:50 17:51:42 47° 47° (NE) 17:55:32 437.485
AO-7 27 Aug 17:50:16 17:54:05 14° 276° (W) 17:57:56 29.400- 29.500
HO-68 27 Aug 18:02:56 18:08:26 24° 52° (NE) 18:13:57 435.675
CINEMA 3 27 Aug 18:06:15 18:09:01 15° 58° (ENE) 18:11:46 145.822/145.860
NOAA 18 27 Aug 18:08:38 18:14:11 83° 72° (ENE) 18:19:45 137.9125
CUBESAT XI-V 27 Aug 18:21:40 18:26:24 81° 285° (WNW) 18:31:06 437.345
SEEDS 27 Aug 18:31:40 18:32:46 11° 57° (ENE) 18:33:52 437.485
KKS-1 27 Aug 18:34:59 18:37:24 15° 302° (WNW) 18:39:49 437.445
MOZHAYETS 4 27 Aug 18:41:48 18:42:51 11° 305° (NW) 18:43:53
CANX-2 27 Aug 18:50:27 18:53:53 25° 65° (ENE) 18:57:20 2200.000
GOMX 1 27 Aug 18:53:24 18:58:16 43° 264° (W) 19:03:25 467.674
CUTE 1.7 + AOD 2 27 Aug 18:56:33 18:59:59 25° 66° (ENE) 19:03:27 437.475
Cubesat XI-IV 27 Aug 18:57:53 19:02:50 38° 263° (W) 19:07:48 437.490
DOVE 4 27 Aug 18:59:37 19:04:49 73° 258° (WSW) 19:10:10 437.250
AAUSAT CUBESAT 2 27 Aug 19:02:04 19:03:51 13° 59° (ENE) 19:05:37 437.432
BEESAT 2 27 Aug 19:07:13 19:11:11 57° 237° (WSW) 19:15:06 435.950
COMPASS 1 27 Aug 19:08:56 19:11:44 18° 62° (ENE) 19:14:32 437.405
Cosmos 2491 27 Aug 19:09:01 19:17:42 71° 283° (WNW) 19:26:31 435.465 / 435.565
CUTE-I 27 Aug 19:10:11 19:14:49 30° 265° (W) 19:19:30 437.470
STARS 27 Aug 19:11:26 19:13:13 12° 304° (NW) 19:15:00 437.465
NOAA 15 27 Aug 19:12:07 19:16:14 23° 268° (W) 19:20:24 137.62
PCSat 27 Aug 19:17:34 19:22:00 25° 37° (NE) 19:26:24 145.827
LilacSat-2 27 Aug 19:20:13 19:22:37 16° 269° (W) 19:25:02 437.200
BRITE-PL 27 Aug 19:20:43 19:23:04 13° 276° (W) 19:25:31 437.365/2234.400
YUBILEINY 27 Aug 19:25:39 19:32:39 28° 280° (W) 19:39:37 435.215
BEESAT 3 27 Aug 19:26:03 19:29:06 21° 245° (WSW) 19:32:08 437.485
Cosmos 2504 27 Aug 19:38:15 19:45:11 49° 270° (W) 19:51:58 435.465 / 435.565
CINEMA 3 27 Aug 19:40:26 19:45:28 89° 83° (E) 19:50:27 145.822/145.860
AIST 2 27 Aug 19:41:05 19:44:32 24° 37° (NE) 19:47:58 435.215
STRAND 1 27 Aug 19:41:37 19:46:24 38° 97° (E) 19:51:09 437.568
Oscar 11 27 Aug 19:43:54 19:46:24 15° 60° (ENE) 19:48:55 145.826/435.025
HO-68 27 Aug 19:48:09 19:55:22 86° 252° (WSW) 20:02:38 435.675
FUNcube-1 27 Aug 19:51:02 19:53:53 17° 62° (ENE) 19:56:42 145.935
NOAA 18 27 Aug 19:52:10 19:55:31 16° 271° (W) 19:58:53 137.9125
UWE-3 27 Aug 19:56:49 20:00:45 30° 67° (ENE) 20:04:38 435.000/436.395/437.385
CUBEBUG 2 27 Aug 19:58:43 20:03:08 44° 70° (ENE) 20:07:29 437.445
AIST 1 27 Aug 20:00:13 20:04:27 43° 75° (ENE) 20:08:38
CUBESAT XI-V 27 Aug 20:01:03 20:03:01 12° 304° (NW) 20:04:58 437.345
SEEDS 27 Aug 20:03:37 20:07:47 86° 74° (ENE) 20:11:58 437.485
ZACube-1 27 Aug 20:11:29 20:15:13 27° 66° (ENE) 20:18:55 437.345
CANX-2 27 Aug 20:25:44 20:29:36 35° 263° (W) 20:33:30 2200.000
CUTE 1.7 + AOD 2 27 Aug 20:31:50 20:35:42 35° 263° (W) 20:39:35 437.475
AAUSAT CUBESAT 2 27 Aug 20:34:38 20:38:44 79° 257° (WSW) 20:42:52 437.432
DELFI C3 27 Aug 20:38:55 20:41:54 21° 65° (ENE) 20:44:54 145.870
DOVE 4 27 Aug 20:42:10 20:43:26 11° 277° (W) 20:44:42 437.250
COMPASS 1 27 Aug 20:42:55 20:46:56 51° 261° (W) 20:50:59 437.405
HUMSAT D 27 Aug 20:57:59 21:00:51 18° 63° (ENE) 21:03:43 437.325/437.525
PCSat 27 Aug 21:00:35 21:06:02 81° 239° (WSW) 21:11:27 145.827
AUBIESAT-1 27 Aug 21:05:37 21:07:55 14° 51° (NE) 21:10:12 437.475
